Retour au catalogue

CZ-6A DEB

ActifSSO
NORAD 54584·DEBRIS·🇨🇳 China

Lancé Nov 11, 2022 depuis Taiyuan Satellite Launch Center

Loading…

Prochains Passages (prochaines 24 heures)

TLE

FraisSource: Space-Track

Époque: Sep 14, 2026, 09:19 UTC

1 54584U 22151ML  26257.38864562  .00000703  00000-0  47114-3 0  9991
2 54584  98.9082 228.4321 0123510 185.1082 174.8832 14.00419532194964

Suivez CZ-6A DEB en temps réel avec AllMySat

Download on the App Store